DateTimeUTC,F1_A11,F1_S11,BsB_S11,BsG_S11,BsR_S11,BbsB_S11,BbsG_S11,BbsR_S11,BaB_A11,BaG_A11,BaR_A11,Tu_S11,T_S11,Uu_S11,U_S11,P_S11,T1_A11
2021-11-30T04:00:00Z,00000200,21000000,,,,,,,-000.23,0000.19,-000.06,19.1,26.1,,00.0,0632.3,30.8
2021-11-30T04:01:00Z,00000200,21000000,,,,,,,0000.25,0000.40,0000.23,19.1,26.1,,00.0,0632.3,30.9
2021-11-30T04:02:00Z,00000200,21000000,,,,,,,-000.11,-000.13,-000.20,19.1,26.1,,00.0,0632.3,30.9
2021-11-30T04:03:00Z,00000200,61000000,,,,,,,0000.22,0000.24,0000.36,19.1,26.1,,00.0,0632.3,30.9
2021-11-30T04:04:00Z,00000200,41000000,0000.40,0000.14,-000.01,0000.13,0000.02,-000.01,0000.53,0000.32,-000.19,19.3,25.9,,00.0,0633.1,30.9
2021-11-30T04:05:00Z,00000200,01000000,0000.23,0000.36,0000.45,-000.38,0000.07,0000.11,-000.05,0000.03,0000.28,19.4,25.9,,00.0,0633.1,30.9
2021-11-30T04:06:00Z,00000200,01000000,0000.99,0000.08,0000.06,0000.02,0000.34,0000.10,0000.17,-000.06,0000.22,19.5,26.0,,00.0,0633.2,30.9
2021-11-30T04:07:00Z,00000200,01000000,0000.28,0000.24,0000.30,-000.04,0000.21,0000.12,0000.36,0000.40,0000.18,19.6,26.0,,00.0,0633.2,30.9
2021-11-30T04:08:00Z,00000200,01000000,0000.91,0000.06,-000.22,0000.16,0000.31,-000.09,-000.24,-000.24,-000.16,19.6,26.0,,00.0,0633.2,31.0
2021-11-30T04:09:00Z,00000200,01000000,0001.42,0000.16,0000.26,0000.01,-000.01,0000.18,-000.12,0000.12,0000.06,19.7,26.0,,00.0,0633.2,31.0
2021-11-30T04:10:00Z,00000200,01000000,0000.61,0000.49,0000.14,0000.22,0000.16,0000.22,0000.15,0000.24,-000.09,19.6,26.1,,00.0,0633.2,30.9
2021-11-30T04:11:00Z,00000200,01000000,0000.13,0000.02,0000.57,0000.65,0000.07,0000.32,-000.11,0000.01,-000.03,19.6,26.0,,00.0,0633.2,30.9
2021-11-30T04:12:00Z,00000200,01000000,0000.59,0000.11,0000.28,-000.45,0000.36,-000.04,0000.30,-000.05,0000.23,19.5,26.0,,00.0,0633.1,30.9
2021-11-30T04:13:00Z,00000200,01000000,-000.04,0000.35,0000.05,-000.66,0000.32,-000.05,0000.11,0000.26,0000.34,19.5,26.0,,00.0,0633.1,30.9
2021-11-30T04:14:00Z,00000200,01000000,0000.59,0000.21,0000.39,0000.39,0000.22,-000.06,-000.04,-000.01,-000.23,19.4,25.9,,00.0,0633.2,30.9
2021-11-30T04:15:00Z,00000200,01000000,0000.62,0000.17,0000.09,0000.11,-000.04,-000.10,0000.38,-000.17,0000.15,19.4,25.9,,00.0,0633.2,30.9
2021-11-30T04:16:00Z,00000200,01000000,0001.00,0000.29,0000.11,-000.15,-000.07,-000.09,0000.26,0000.48,0000.13,19.4,25.9,,00.0,0633.2,30.9
2021-11-30T04:17:00Z,00000200,01000000,0000.80,0000.12,-000.04,0000.36,0000.13,0000.01,-000.01,0000.12,-000.13,19.4,25.9,,00.0,0633.2,30.9
2021-11-30T04:18:00Z,00000200,01000000,0000.36,-000.02,-000.04,0000.41,0000.11,0000.14,0000.08,0000.05,0000.25,19.4,25.9,,00.0,0633.3,30.9
2021-11-30T04:19:00Z,00000200,01000000,0000.84,-000.23,-000.17,-000.23,0000.30,0000.02,0000.23,0000.10,-000.02,19.5,25.9,,00.0,0633.4,30.9
2021-11-30T04:20:00Z,00000200,01000000,0000.47,0000.08,0000.08,0000.21,-000.10,0000.07,0000.16,0000.24,0000.26,19.5,25.9,,00.0,0633.4,30.9
2021-11-30T04:21:00Z,00000200,01000000,0000.40,0000.30,0000.09,0000.21,-000.09,0000.30,0000.08,0000.34,0000.03,19.6,25.9,,00.0,0633.5,30.9
2021-11-30T04:22:00Z,00000200,01000000,0000.95,-000.09,0000.45,-000.54,0000.10,0000.34,-000.02,-000.25,0000.29,19.7,26.0,,00.0,0633.5,30.9
2021-11-30T04:23:00Z,00000200,01000000,0000.97,0000.09,-000.10,0000.42,-000.03,-000.19,-000.06,0000.07,-000.39,19.7,26.0,,00.0,0633.6,31.0
2021-11-30T04:24:00Z,00000200,01000000,0000.38,0000.25,0000.29,0000.03,0000.04,0000.27,0000.22,-000.03,-000.03,19.7,26.1,,00.0,0633.6,31.0
2021-11-30T04:25:00Z,00000200,01000000,0001.08,-000.15,0000.20,0000.08,0000.06,0000.03,-000.01,0000.08,0000.16,19.6,26.0,,00.0,0633.6,30.9
2021-11-30T04:26:00Z,00000200,01000000,0000.75,0000.09,-000.18,-000.10,0000.07,0000.00,0000.15,-000.11,-000.36,19.6,26.0,,00.0,0633.5,30.9
2021-11-30T04:27:00Z,00000200,01000000,0000.72,-000.12,0000.15,-000.10,0000.04,0000.20,0000.19,0000.05,0000.44,19.5,26.0,,00.0,0633.5,30.9
2021-11-30T04:28:00Z,00000200,01000000,0000.21,0000.07,-000.02,-000.55,0000.19,-000.27,-000.19,0000.26,-000.25,19.5,25.9,,00.0,0633.6,30.9
2021-11-30T04:29:00Z,00000200,01000000,0000.59,0000.06,0000.12,-000.14,0000.40,0000.47,0000.01,-000.09,0000.15,19.4,25.9,,00.0,0633.6,30.9
2021-11-30T04:30:00Z,00000200,01000000,0000.36,-000.10,-000.15,0000.66,0000.15,-000.17,0000.13,-000.05,-000.02,19.4,25.9,,00.0,0633.6,30.9
2021-11-30T04:31:00Z,00000200,01000000,0001.21,0000.55,0000.33,-000.19,0000.13,0000.38,-000.09,0000.05,0000.31,19.3,25.8,,00.0,0633.7,30.9
2021-11-30T04:32:00Z,00000200,01000000,0000.74,0000.08,-000.04,-000.27,-000.05,0000.07,0000.65,0000.58,0000.09,19.3,25.9,,00.0,0633.7,30.9
2021-11-30T04:33:00Z,00000200,01000000,0000.54,0000.29,0000.45,-000.03,-000.02,0000.36,-000.18,-000.27,0000.00,19.4,25.9,,00.0,0633.8,30.9
2021-11-30T04:34:00Z,00000200,01000000,0001.12,0000.11,0000.02,0000.19,-000.04,-000.00,0000.42,0000.11,-000.26,19.4,25.9,,00.0,0633.8,30.9
2021-11-30T04:35:00Z,00000200,01000000,0000.74,0000.06,0000.21,0000.14,0000.22,0000.11,-000.27,0000.16,0000.09,19.5,25.9,,00.0,0633.8,30.9
2021-11-30T04:36:00Z,00000200,01000000,0000.66,0000.21,0000.30,-000.08,-000.22,0000.17,0000.33,0000.11,0000.42,19.6,25.9,,00.0,0633.8,30.9
2021-11-30T04:37:00Z,00000200,01000000,0000.70,0000.20,0000.18,0000.14,-000.01,-000.04,0000.01,0000.11,-000.49,19.6,26.0,,00.0,0633.8,30.9
2021-11-30T04:38:00Z,00000200,01000000,0000.31,0000.03,-000.04,-000.54,0000.38,-000.26,-000.25,0000.15,0000.13,19.7,26.0,,00.0,0633.9,31.0
2021-11-30T04:39:00Z,00000200,01000000,0000.54,0000.40,0000.14,0000.55,0000.10,-000.02,0000.19,-000.14,0000.56,19.7,26.0,,00.0,0633.9,31.0
2021-11-30T04:40:00Z,00000200,01000000,0000.43,0000.16,0000.32,-000.20,0000.14,0000.30,0000.18,0000.21,-000.37,19.7,26.0,,00.0,0633.9,30.9
2021-11-30T04:41:00Z,00000200,01000000,0001.06,0000.25,0000.15,-000.02,0000.16,0000.17,-000.17,-000.07,0000.04,19.6,26.0,,00.0,0633.9,30.9
2021-11-30T04:42:00Z,00000200,01000000,0000.81,0000.36,0000.05,0000.08,0000.25,0000.18,-000.09,-000.21,0000.03,19.6,26.0,,00.0,0633.9,30.9
2021-11-30T04:43:00Z,00000200,01000000,0000.46,0000.33,0000.12,-000.02,0000.08,-000.42,0000.28,0000.09,-000.00,19.5,26.0,,00.0,0633.9,30.9
2021-11-30T04:44:00Z,00000200,01000000,0000.94,0000.33,0000.22,0000.15,0000.12,0000.03,0000.02,0000.45,0000.11,19.5,25.9,,00.0,0633.9,30.9
2021-11-30T04:45:00Z,00000200,01000000,-000.18,0000.28,0000.27,-000.15,0000.09,0000.49,0000.37,-000.42,-000.13,19.4,25.9,,00.0,0633.9,30.9
2021-11-30T04:46:00Z,00000200,01000000,0000.46,-000.09,0000.32,-000.62,-000.02,0000.04,0000.22,0000.35,0000.13,19.4,25.9,,00.0,0633.9,30.9
2021-11-30T04:47:00Z,00000200,01000000,0000.45,0000.07,0000.14,0000.13,0000.01,0000.05,-000.17,0000.12,0000.02,19.4,25.9,,00.0,0633.9,30.9
2021-11-30T04:48:00Z,00000200,01000000,0000.33,-000.04,0000.57,-000.33,-000.19,0000.02,0000.34,0000.04,0000.09,19.5,25.9,,00.0,0633.9,30.9
2021-11-30T04:49:00Z,00000200,01000000,0000.92,0000.18,-000.11,-000.04,-000.11,-000.19,-000.18,0000.16,-000.11,19.5,25.9,,00.0,0633.9,30.9
2021-11-30T04:50:00Z,00000200,01000000,0001.06,0000.17,0000.26,0000.15,0000.02,0000.21,0000.38,0000.10,0000.28,19.5,25.9,,00.0,0633.9,31.0
2021-11-30T04:51:00Z,00000200,01000000,0000.99,0000.29,0000.06,-000.62,0000.06,-000.14,0000.45,0000.52,0000.24,19.6,26.0,,00.0,0633.9,31.0
2021-11-30T04:52:00Z,00000200,01000000,0000.55,-000.01,0000.38,0000.43,-000.08,0000.11,-000.16,-000.40,0000.05,19.7,26.0,,00.0,0633.9,31.0
2021-11-30T04:53:00Z,00000200,01000000,0000.32,0000.20,0000.16,-000.36,0000.18,-000.03,-000.16,0000.38,-000.23,19.7,26.0,,00.0,0633.9,31.0
2021-11-30T04:54:00Z,00000200,01000000,0000.47,0000.40,0000.23,0000.00,0000.25,0000.22,0000.18,-000.41,-000.11,19.7,26.1,,00.0,0633.9,31.0
2021-11-30T04:55:00Z,00000200,01000000,0000.44,0000.36,0000.13,-000.17,-000.06,0000.07,-000.06,0000.33,0000.29,19.7,26.1,,00.0,0633.9,31.0
2021-11-30T04:56:00Z,00000200,01000000,0000.41,0000.39,0000.21,0000.50,0000.11,0000.36,0000.28,-000.01,0000.22,19.6,26.0,,00.0,0633.9,30.9
2021-11-30T04:57:00Z,00000200,41000000,,,,,,,0000.37,0000.59,0000.51,19.6,26.1,,00.0,0634.0,30.9
2021-11-30T04:58:00Z,00000200,61000000,,,,,,,-000.10,-000.07,-000.25,19.2,26.1,,00.0,0633.0,30.9
2021-11-30T04:59:00Z,00000200,21000000,,,,,,,-000.10,-000.36,-000.29,19.1,26.2,,00.0,0633.0,30.9
